User: anonymous   Login
Location: Unspecified
(0.0000°N, 0.0000°E)
Time: 04:07:19
(UTC+00:00)
Language:

TERCEL - Orbit

View from above orbital plane
View from above orbital plane
View from above satellite
View from above satellite

Ground track
Ground track

The orbit data is extracted from the following two-line orbital elements,

1 20547U 90028B   18022.57374516 +.00000338 +00000-0 +13365-4 0  9994
2 20547 094.1006 249.4053 0084821 159.5623 200.9050 15.24117635533137
Epoch (UTC): 22 January 2018 13:46:11
Eccentricity: 0.0084821
inclination: 94.1006°
perigee height: 435 km
apogee height: 552 km
right ascension of ascending node: 249.4053°
argument of perigee: 159.5623°
revolutions per day: 15.24117635
mean anomaly at epoch: 200.9050°
orbit number at epoch: 53313

The dashed part of the orbit path shows where the satellite is in the earth's shadow,  

DLR